| time (UTC) | temp F | wind direction | speed MPH | gust MPH | rain 1hr in | rain 24hr in | rain mn in | humidity % | barometer mb |
| 20260505094507 | 38 | 268 | 5.0 | 10.0 | 0.00 | 0.00 | 0.00 | 64 | 1008.6 |
| 20260505094007 | 38 | 297 | 4.0 | 10.0 | 0.00 | 0.00 | 0.00 | 64 | 1008.5 |
| 20260505093504 | 38 | 309 | 4.0 | 10.0 | 0.00 | 0.00 | 0.00 | 64 | 1008.4 |
| 20260505093008 | 38 | 250 | 3.0 | 14.0 | 0.00 | 0.00 | 0.00 | 64 | 1008.3 |
| 20260505092504 | 38 | 9 | 5.0 | 14.0 | 0.00 | 0.00 | 0.00 | 63 | 1008.2 |
| 20260505092007 | 38 | 333 | 4.0 | 11.0 | 0.00 | 0.00 | 0.00 | 63 | 1008.2 |
| 20260505091520 | 38 | 332 | 3.0 | 11.0 | 0.00 | 0.00 | 0.00 | 62 | 1008.1 |
| 20260505091006 | 38 | 306 | 3.0 | 10.0 | 0.00 | 0.00 | 0.00 | 62 | 1008.1 |
| 20260505090506 | 38 | 300 | 5.0 | 10.0 | 0.00 | 0.00 | 0.00 | 62 | 1008.1 |
| 20260505090037 | 38 | 307 | 5.0 | 12.0 | 0.00 | 0.00 | 0.00 | 61 | 1008.0 |
| 20260505085503 | 38 | 309 | 6.0 | 12.0 | 0.00 | 0.00 | 0.00 | 61 | 1008.0 |
| 20260505085005 | 38 | 304 | 6.0 | 14.0 | 0.00 | 0.00 | 0.00 | 61 | 1007.9 |
| 20260505084510 | 38 | 288 | 6.0 | 14.0 | 0.00 | 0.00 | 0.00 | 61 | 1007.9 |
| 20260505084004 | 38 | 289 | 5.0 | 12.0 | 0.00 | 0.00 | 0.00 | 62 | 1007.9 |
| 20260505083504 | 38 | 303 | 7.0 | 12.0 | 0.00 | 0.00 | 0.00 | 62 | 1007.7 |
| 20260505083018 | 38 | 250 | 6.0 | 13.0 | 0.00 | 0.00 | 0.00 | 63 | 1007.7 |
| 20260505082510 | 38 | 293 | 5.0 | 13.0 | 0.00 | 0.00 | 0.00 | 63 | 1007.6 |
| 20260505082008 | 38 | 273 | 7.0 | 13.0 | 0.00 | 0.00 | 0.00 | 64 | 1007.6 |
| 20260505081513 | 38 | 268 | 5.0 | 11.0 | 0.00 | 0.00 | 0.00 | 64 | 1007.6 |
| 20260505081008 | 38 | 292 | 6.0 | 9.0 | 0.00 | 0.00 | 0.00 | 65 | 1007.6 |
| 20260505080508 | 38 | 281 | 6.0 | 11.0 | 0.00 | 0.00 | 0.00 | 65 | 1007.6 |
| 20260505080032 | 38 | 273 | 4.0 | 11.0 | 0.00 | 0.00 | 0.00 | 65 | 1007.5 |
| 20260505075506 | 38 | 295 | 4.0 | 9.0 | 0.00 | 0.00 | 0.00 | 65 | 1007.5 |
| 20260505075003 | 38 | 271 | 3.0 | 8.0 | 0.00 | 0.00 | 0.00 | 65 | 1007.3 |
| 20260505074510 | 38 | 288 | 3.0 | 8.0 | 0.00 | 0.00 | 0.00 | 66 | 1007.3 |
| 20260505074004 | 38 | 261 | 3.0 | 9.0 | 0.00 | 0.00 | 0.00 | 66 | 1007.4 |
| 20260505073505 | 38 | 259 | 5.0 | 9.0 | 0.00 | 0.00 | 0.00 | 66 | 1007.5 |
| 20260505073028 | 38 | 272 | 4.0 | 9.0 | 0.00 | 0.00 | 0.00 | 66 | 1007.4 |
| 20260505072502 | 38 | 332 | 5.0 | 9.0 | 0.00 | 0.00 | 0.00 | 66 | 1007.3 |
| 20260505072010 | 38 | 217 | 3.0 | 9.0 | 0.00 | 0.00 | 0.00 | 66 | 1007.4 |
| 20260505071532 | 38 | 257 | 3.0 | 7.0 | 0.00 | 0.00 | 0.00 | 66 | 1007.4 |
| 20260505071010 | 38 | 242 | 3.0 | 7.0 | 0.00 | 0.00 | 0.00 | 66 | 1007.5 |
| 20260505070504 | 38 | 242 | 3.0 | 7.0 | 0.00 | 0.00 | 0.00 | 66 | 1007.5 |
| 20260505070024 | 38 | 250 | 3.0 | 9.0 | 0.00 | 0.00 | 0.00 | 66 | 1007.5 |
| 20260505065509 | 38 | 304 | 4.0 | 9.0 | 0.00 | 0.00 | 0.00 | 65 | 1007.6 |
| 20260505065003 | 38 | 281 | 4.0 | 9.0 | 0.00 | 0.00 | 0.00 | 65 | 1007.6 |
| 20260505064510 | 38 | 296 | 3.0 | 7.0 | 0.00 | 0.00 | 0.00 | 64 | 1007.6 |
| 20260505064006 | 38 | 273 | 2.0 | 5.0 | 0.00 | 0.00 | 0.00 | 64 | 1007.5 |
| 20260505063504 | 38 | 275 | 3.0 | 7.0 | 0.00 | 0.00 | 0.00 | 63 | 1007.5 |
| 20260505063012 | 38 | 304 | 2.0 | 7.0 | 0.00 | 0.00 | 0.00 | 63 | 1007.5 |
| 20260505062507 | 38 | 301 | 3.0 | 6.0 | 0.00 | 0.00 | 0.00 | 63 | 1007.6 |
| 20260505062007 | 39 | 249 | 3.0 | 9.0 | 0.00 | 0.00 | 0.00 | 63 | 1007.5 |
| 20260505061528 | 39 | 273 | 5.0 | 9.0 | 0.00 | 0.00 | 0.00 | 63 | 1007.6 |
| 20260505061006 | 39 | 277 | 4.0 | 8.0 | 0.00 | 0.00 | 0.00 | 63 | 1007.6 |
| 20260505060509 | 39 | 255 | 5.0 | 8.0 | 0.00 | 0.00 | 0.00 | 62 | 1007.6 |
| 20260505060034 | 39 | 272 | 3.0 | 8.0 | 0.00 | 0.00 | 0.00 | 62 | 1007.7 |
| 20260505055504 | 39 | 257 | 3.0 | 8.0 | 0.00 | 0.00 | 0.00 | 62 | 1007.6 |
| 20260505055004 | 39 | 242 | 3.0 | 8.0 | 0.00 | 0.00 | 0.00 | 62 | 1007.4 |
| 20260505054516 | 39 | 221 | 3.0 | 8.0 | 0.00 | 0.00 | 0.00 | 62 | 1007.4 |
| 20260505054006 | 39 | 236 | 2.0 | 8.0 | 0.00 | 0.00 | 0.00 | 61 | 1007.3 |
| 20260505053506 | 40 | 247 | 3.0 | 8.0 | 0.00 | 0.00 | 0.00 | 60 | 1007.4 |
| 20260505053025 | 40 | 241 | 3.0 | 10.0 | 0.00 | 0.00 | 0.00 | 60 | 1007.4 |
| 20260505052507 | 40 | 265 | 5.0 | 10.0 | 0.00 | 0.00 | 0.00 | 59 | 1007.4 |
| 20260505052008 | 40 | 236 | 3.0 | 7.0 | 0.00 | 0.00 | 0.00 | 59 | 1007.3 |
| 20260505051518 | 40 | 234 | 3.0 | 7.0 | 0.00 | 0.00 | 0.00 | 58 | 1007.3 |
| 20260505051013 | 40 | 245 | 3.0 | 7.0 | 0.00 | 0.00 | 0.00 | 58 | 1007.2 |
| 20260505050510 | 40 | 257 | 3.0 | 7.0 | 0.00 | 0.00 | 0.00 | 58 | 1007.2 |
| 20260505041509 | 42 | 243 | 3.0 | 8.0 | 0.00 | 0.00 | 0.00 | 55 | 1007.2 |
| 20260505041003 | 42 | 243 | 3.0 | 8.0 | 0.00 | 0.00 | 0.00 | 54 | 1007.1 |
| 20260505040503 | 42 | 254 | 3.0 | 9.0 | 0.00 | 0.00 | 0.00 | 54 | 1007.2 |
| 20260505040004 | 42 | 261 | 5.0 | 9.0 | 0.00 | 0.00 | 0.00 | 53 | 1007.2 |
| 20260505035508 | 42 | 275 | 4.0 | 8.0 | 0.00 | 0.00 | 0.00 | 53 | 1007.1 |
| 20260505035008 | 42 | 255 | 3.0 | 8.0 | 0.00 | 0.00 | 0.00 | 53 | 1007.1 |
| 20260505034503 | 42 | 241 | 3.0 | 8.0 | 0.00 | 0.00 | 0.00 | 53 | 1007.0 |
| 20260505034004 | 42 | 257 | 3.0 | 7.0 | 0.00 | 0.00 | 0.00 | 53 | 1006.9 |
| 20260505033503 | 42 | 238 | 3.0 | 7.0 | 0.00 | 0.00 | 0.00 | 53 | 1006.9 |
| 20260505033005 | 42 | 236 | 3.0 | 8.0 | 0.00 | 0.00 | 0.00 | 52 | 1007.0 |
| 20260505032503 | 42 | 242 | 4.0 | 8.0 | 0.00 | 0.00 | 0.00 | 52 | 1007.0 |
| 20260505032005 | 43 | 249 | 4.0 | 7.0 | 0.00 | 0.00 | 0.00 | 52 | 1007.0 |
| 20260505031506 | 43 | 247 | 4.0 | 8.0 | 0.00 | 0.00 | 0.00 | 51 | 1007.0 |
| 20260505031005 | 43 | 250 | 3.0 | 8.0 | 0.00 | 0.00 | 0.00 | 51 | 1007.0 |
| 20260505030504 | 43 | 236 | 3.0 | 7.0 | 0.00 | 0.00 | 0.00 | 50 | 1007.0 |
| 20260505030012 | 43 | 236 | 2.0 | 7.0 | 0.00 | 0.00 | 0.00 | 50 | 1007.0 |
| 20260505025504 | 44 | 259 | 3.0 | 7.0 | 0.00 | 0.00 | 0.00 | 50 | 1006.9 |
| 20260505025004 | 44 | 265 | 2.0 | 7.0 | 0.00 | 0.00 | 0.00 | 49 | 1006.8 |
| 20260505024507 | 44 | 245 | 3.0 | 7.0 | 0.00 | 0.00 | 0.00 | 49 | 1006.8 |
| 20260505024008 | 44 | 277 | 2.0 | 7.0 | 0.00 | 0.00 | 0.00 | 49 | 1006.8 |
| 20260505023503 | 44 | 245 | 4.0 | 9.0 | 0.00 | 0.00 | 0.00 | 48 | 1006.7 |
| 20260505023003 | 45 | 277 | 4.0 | 9.0 | 0.00 | 0.00 | 0.00 | 48 | 1006.6 |
| 20260505022503 | 45 | 265 | 4.0 | 7.0 | 0.00 | 0.00 | 0.00 | 48 | 1006.6 |
| 20260505022006 | 45 | 272 | 3.0 | 7.0 | 0.00 | 0.00 | 0.00 | 47 | 1006.5 |
| 20260505021503 | 45 | 250 | 3.0 | 9.0 | 0.00 | 0.00 | 0.00 | 47 | 1006.5 |
| 20260505021003 | 45 | 232 | 4.0 | 9.0 | 0.00 | 0.00 | 0.00 | 46 | 1006.4 |
| 20260505020504 | 46 | 242 | 5.0 | 13.0 | 0.00 | 0.00 | 0.00 | 46 | 1006.3 |
| 20260505020017 | 46 | 291 | 6.0 | 13.0 | 0.00 | 0.00 | 0.00 | 45 | 1006.3 |
| 20260505015504 | 46 | 294 | 6.0 | 16.0 | 0.00 | 0.00 | 0.00 | 46 | 1006.4 |
| 20260505015004 | 46 | 279 | 5.0 | 16.0 | 0.00 | 0.00 | 0.00 | 44 | 1006.2 |
| 20260505014531 | 46 | 287 | 8.0 | 13.0 | 0.00 | 0.00 | 0.00 | 44 | 1006.2 |
| 20260505014003 | 47 | 295 | 5.0 | 13.0 | 0.00 | 0.00 | 0.00 | 44 | 1006.3 |
| 20260505013504 | 47 | 279 | 5.0 | 18.0 | 0.00 | 0.00 | 0.00 | 43 | 1006.1 |
| 20260505013004 | 47 | 241 | 7.0 | 22.0 | 0.00 | 0.00 | 0.00 | 43 | 1006.0 |
| 20260505012504 | 47 | 272 | 8.0 | 24.0 | 0.00 | 0.00 | 0.00 | 42 | 1005.9 |
| 20260505012004 | 48 | 266 | 11.0 | 24.0 | 0.00 | 0.00 | 0.00 | 43 | 1005.7 |
| 20260505011507 | 48 | 302 | 11.0 | 23.0 | 0.00 | 0.00 | 0.00 | 43 | 1005.6 |
| 20260505011006 | 48 | 279 | 10.0 | 21.0 | 0.00 | 0.00 | 0.00 | 43 | 1005.6 |
| 20260505010503 | 49 | 293 | 12.0 | 26.0 | 0.00 | 0.00 | 0.00 | 43 | 1005.6 |
| 20260505010007 | 49 | 267 | 11.0 | 26.0 | 0.00 | 0.00 | 0.00 | 43 | 1005.5 |
| 20260505005504 | 49 | 296 | 11.0 | 24.0 | 0.00 | 0.00 | 0.00 | 43 | 1005.5 |
| 20260505005008 | 50 | 303 | 11.0 | 24.0 | 0.00 | 0.00 | 0.00 | 43 | 1005.1 |
| 20260505004513 | 50 | 293 | 11.0 | 25.0 | 0.00 | 0.00 | 0.00 | 42 | 1005.1 |
| 20260505004006 | 50 | 273 | 15.0 | 27.0 | 0.00 | 0.00 | 0.00 | 42 | 1004.9 |
| 20260505003504 | 50 | 294 | 15.0 | 27.0 | 0.00 | 0.00 | 0.00 | 41 | 1004.9 |
| 20260505003006 | 51 | 293 | 13.0 | 26.0 | 0.00 | 0.00 | 0.00 | 41 | 1004.9 |
| 20260505002504 | 51 | 263 | 11.0 | 26.0 | 0.00 | 0.00 | 0.00 | 41 | 1004.8 |
| 20260505002004 | 51 | 257 | 13.0 | 25.0 | 0.00 | 0.00 | 0.00 | 40 | 1004.7 |
| 20260505001513 | 51 | 232 | 11.0 | 25.0 | 0.00 | 0.00 | 0.00 | 41 | 1004.6 |
| 20260505001004 | 51 | 275 | 13.0 | 20.0 | 0.00 | 0.00 | 0.00 | 42 | 1004.5 |
| 20260505000505 | 51 | 259 | 12.0 | 23.0 | 0.00 | 0.00 | 0.00 | 42 | 1004.6 |
| 20260505000017 | 51 | 240 | 11.0 | 23.0 | 0.00 | 0.00 | 0.00 | 40 | 1004.5 |
| 20260504235507 | 51 | 273 | 11.0 | 22.0 | 0.00 | 0.00 | 0.00 | 42 | 1004.4 |
| 20260504235004 | 51 | 287 | 12.0 | 22.0 | 0.00 | 0.00 | 0.00 | 42 | 1004.4 |
| 20260504234511 | 52 | 255 | 13.0 | 22.0 | 0.00 | 0.00 | 0.00 | 40 | 1004.5 |
| 20260504234011 | 52 | 273 | 14.0 | 26.0 | 0.00 | 0.00 | 0.00 | 40 | 1004.5 |
| 20260504233504 | 52 | 309 | 12.0 | 26.0 | 0.00 | 0.00 | 0.00 | 39 | 1004.3 |
| 20260504233007 | 53 | 289 | 12.0 | 28.0 | 0.00 | 0.00 | 0.00 | 42 | 1004.3 |
| 20260504232506 | 53 | 287 | 13.0 | 28.0 | 0.00 | 0.00 | 0.00 | 41 | 1004.2 |
| 20260504232006 | 53 | 277 | 12.0 | 22.0 | 0.00 | 0.00 | 0.00 | 39 | 1004.0 |
| 20260504231508 | 53 | 249 | 11.0 | 27.0 | 0.00 | 0.00 | 0.00 | 41 | 1004.0 |
| 20260504231007 | 53 | 284 | 12.0 | 27.0 | 0.00 | 0.00 | 0.00 | 40 | 1004.0 |
| 20260504230508 | 53 | 270 | 14.0 | 27.0 | 0.00 | 0.00 | 0.00 | 42 | 1003.9 |
| 20260504230023 | 53 | 312 | 10.0 | 27.0 | 0.00 | 0.00 | 0.00 | 40 | 1003.9 |
| 20260504225504 | 53 | 314 | 15.0 | 27.0 | 0.00 | 0.00 | 0.00 | 40 | 1003.7 |
| 20260504225008 | 54 | 275 | 13.0 | 27.0 | 0.00 | 0.00 | 0.00 | 39 | 1003.7 |
| 20260504224525 | 55 | 275 | 15.0 | 27.0 | 0.00 | 0.00 | 0.00 | 40 | 1003.7 |
| 20260504224003 | 55 | 344 | 14.0 | 26.0 | 0.00 | 0.00 | 0.00 | 40 | 1003.3 |
| 20260504223507 | 55 | 271 | 10.0 | 29.0 | 0.00 | 0.00 | 0.00 | 40 | 1003.5 |
| 20260504223010 | 55 | 268 | 12.0 | 29.0 | 0.00 | 0.00 | 0.00 | 41 | 1003.4 |
| 20260504222505 | 55 | 311 | 11.0 | 25.0 | 0.00 | 0.00 | 0.00 | 40 | 1003.2 |
| 20260504222005 | 56 | 341 | 14.0 | 27.0 | 0.00 | 0.00 | 0.00 | 39 | 1003.1 |
| 20260504221516 | 57 | 265 | 12.0 | 27.0 | 0.00 | 0.00 | 0.00 | 39 | 1003.0 |
| 20260504221006 | 57 | 300 | 11.0 | 26.0 | 0.00 | 0.00 | 0.00 | 39 | 1002.9 |
| 20260504220507 | 57 | 275 | 13.0 | 30.0 | 0.00 | 0.00 | 0.00 | 39 | 1002.7 |
| 20260504220014 | 57 | 263 | 16.0 | 30.0 | 0.00 | 0.00 | 0.00 | 38 | 1002.7 |
| 20260504215508 | 57 | 323 | 14.0 | 30.0 | 0.00 | 0.00 | 0.00 | 40 | 1002.5 |
| 20260504215008 | 58 | 279 | 18.0 | 30.0 | 0.00 | 0.00 | 0.00 | 38 | 1002.6 |
| 20260504214511 | 57 | 332 | 13.0 | 27.0 | 0.00 | 0.00 | 0.00 | 38 | 1002.5 |
| 20260504214007 | 57 | 83 | 9.0 | 24.0 | 0.00 | 0.00 | 0.00 | 40 | 1002.4 |
| 20260504213505 | 57 | 292 | 12.0 | 29.0 | 0.00 | 0.00 | 0.00 | 38 | 1002.4 |
| 20260504213016 | 58 | 319 | 17.0 | 30.0 | 0.00 | 0.00 | 0.00 | 39 | 1002.3 |
| 20260504212507 | 58 | 315 | 16.0 | 30.0 | 0.00 | 0.00 | 0.00 | 38 | 1002.4 |
| 20260504212011 | 58 | 290 | 18.0 | 29.0 | 0.00 | 0.00 | 0.00 | 37 | 1002.1 |
| 20260504211518 | 58 | 306 | 12.0 | 31.0 | 0.00 | 0.00 | 0.00 | 40 | 1002.1 |
| 20260504211002 | 59 | 284 | 13.0 | 31.0 | 0.00 | 0.00 | 0.00 | 37 | 1002.1 |
| 20260504210506 | 60 | 252 | 12.0 | 29.0 | 0.00 | 0.00 | 0.00 | 40 | 1001.9 |
| 20260504210035 | 60 | 291 | 14.0 | 29.0 | 0.00 | 0.00 | 0.00 | 39 | 1002.0 |
| 20260504205509 | 60 | 279 | 13.0 | 31.0 | 0.00 | 0.00 | 0.00 | 39 | 1001.9 |
| 20260504205006 | 61 | 289 | 17.0 | 31.0 | 0.00 | 0.00 | 0.00 | 36 | 1001.9 |
| 20260504204529 | 61 | 237 | 10.0 | 29.0 | 0.00 | 0.00 | 0.00 | 39 | 1001.8 |
| 20260504204005 | 60 | 306 | 10.0 | 29.0 | 0.00 | 0.00 | 0.00 | 40 | 1001.8 |
| 20260504203503 | 60 | 303 | 12.0 | 27.0 | 0.00 | 0.00 | 0.00 | 39 | 1001.7 |
| 20260504203021 | 59 | 289 | 11.0 | 30.0 | 0.00 | 0.00 | 0.00 | 40 | 1001.7 |
| 20260504202506 | 59 | 230 | 17.0 | 30.0 | 0.00 | 0.00 | 0.00 | 38 | 1001.6 |
| 20260504202006 | 60 | 308 | 12.0 | 27.0 | 0.00 | 0.00 | 0.00 | 39 | 1001.6 |
| 20260504201512 | 59 | 259 | 16.0 | 30.0 | 0.00 | 0.00 | 0.00 | 39 | 1001.5 |
| 20260504201006 | 60 | 269 | 18.0 | 34.0 | 0.00 | 0.00 | 0.00 | 40 | 1001.7 |
| 20260504200509 | 60 | 301 | 13.0 | 34.0 | 0.00 | 0.00 | 0.00 | 39 | 1001.6 |
| 20260504200003 | 61 | 275 | 11.0 | 28.0 | 0.00 | 0.00 | 0.00 | 42 | 1001.5 |
| 20260504195502 | 61 | 286 | 15.0 | 30.0 | 0.00 | 0.00 | 0.00 | 38 | 1001.4 |
| 20260504195003 | 60 | 307 | 12.0 | 30.0 | 0.00 | 0.00 | 0.00 | 38 | 1001.4 |
| 20260504194508 | 60 | 296 | 13.0 | 30.0 | 0.00 | 0.00 | 0.00 | 39 | 1001.5 |
| 20260504194002 | 59 | 286 | 12.0 | 30.0 | 0.00 | 0.00 | 0.00 | 41 | 1001.5 |
| 20260504193504 | 59 | 257 | 15.0 | 28.0 | 0.00 | 0.00 | 0.00 | 39 | 1001.4 |
| 20260504193006 | 60 | 234 | 12.0 | 26.0 | 0.00 | 0.00 | 0.00 | 40 | 1001.2 |
| 20260504192502 | 60 | 275 | 15.0 | 25.0 | 0.00 | 0.00 | 0.00 | 40 | 1001.3 |
| 20260504192006 | 61 | 252 | 12.0 | 30.0 | 0.00 | 0.00 | 0.00 | 41 | 1001.2 |
| 20260504191522 | 60 | 273 | 17.0 | 30.0 | 0.00 | 0.00 | 0.00 | 38 | 1001.0 |
| 20260504191003 | 60 | 291 | 15.0 | 25.0 | 0.00 | 0.00 | 0.00 | 37 | 1001.0 |
| 20260504190506 | 61 | 147 | 15.0 | 25.0 | 0.00 | 0.00 | 0.00 | 37 | 1001.1 |
| 20260504190006 | 61 | 310 | 10.0 | 30.0 | 0.00 | 0.00 | 0.00 | 40 | 1001.0 |
| 20260504185502 | 60 | 249 | 13.0 | 30.0 | 0.00 | 0.00 | 0.00 | 39 | 1000.9 |
| 20260504185002 | 61 | 232 | 17.0 | 29.0 | 0.00 | 0.00 | 0.00 | 37 | 1000.8 |
| 20260504184510 | 60 | 279 | 15.0 | 29.0 | 0.00 | 0.00 | 0.00 | 38 | 1000.8 |
| 20260504184006 | 60 | 314 | 13.0 | 24.0 | 0.00 | 0.00 | 0.00 | 39 | 1000.8 |
| 20260504183506 | 58 | 262 | 12.0 | 28.0 | 0.00 | 0.00 | 0.00 | 42 | 1000.9 |
| 20260504183014 | 58 | 259 | 18.0 | 28.0 | 0.00 | 0.00 | 0.00 | 37 | 1000.8 |
| 20260504182508 | 60 | 249 | 15.0 | 26.0 | 0.00 | 0.00 | 0.00 | 36 | 1000.7 |
| 20260504182003 | 60 | 273 | 10.0 | 25.0 | 0.00 | 0.00 | 0.00 | 36 | 1000.7 |
| 20260504181510 | 61 | 284 | 12.0 | 29.0 | 0.00 | 0.00 | 0.00 | 36 | 1000.4 |
| 20260504181008 | 60 | 317 | 16.0 | 32.0 | 0.00 | 0.00 | 0.00 | 35 | 1000.3 |
| 20260504180502 | 61 | 273 | 14.0 | 32.0 | 0.00 | 0.00 | 0.00 | 35 | 1000.2 |
| 20260504180008 | 62 | 275 | 19.0 | 31.0 | 0.00 | 0.00 | 0.00 | 36 | 1000.1 |
| 20260504175503 | 63 | 312 | 15.0 | 26.0 | 0.00 | 0.00 | 0.00 | 37 | 999.9 |
| 20260504175006 | 63 | 301 | 10.0 | 25.0 | 0.00 | 0.00 | 0.00 | 41 | 999.8 |
| 20260504174514 | 62 | 310 | 11.0 | 25.0 | 0.00 | 0.00 | 0.00 | 40 | 999.9 |
| 20260504174003 | 63 | 265 | 14.0 | 27.0 | 0.00 | 0.00 | 0.00 | 37 | 999.8 |
| 20260504173504 | 62 | 266 | 11.0 | 27.0 | 0.00 | 0.00 | 0.00 | 37 | 999.7 |
| 20260504173020 | 63 | 342 | 17.0 | 26.0 | 0.00 | 0.00 | 0.00 | 38 | 999.9 |
| 20260504172503 | 63 | 243 | 13.0 | 24.0 | 0.00 | 0.00 | 0.00 | 39 | 999.7 |
| 20260504172004 | 63 | 261 | 10.0 | 29.0 | 0.00 | 0.00 | 0.00 | 40 | 999.7 |
| 20260504171520 | 62 | 225 | 13.0 | 29.0 | 0.00 | 0.00 | 0.00 | 45 | 999.6 |
| 20260504171007 | 62 | 309 | 14.0 | 33.0 | 0.00 | 0.00 | 0.00 | 43 | 999.8 |
| 20260504170505 | 62 | 254 | 18.0 | 33.0 | 0.00 | 0.00 | 0.00 | 40 | 999.7 |
| 20260504151003 | 59 | 252 | 12.0 | 22.0 | 0.00 | 0.00 | 0.00 | 45 | 999.4 |
| 20260504150504 | 59 | 301 | 10.0 | 24.0 | 0.00 | 0.00 | 0.00 | 45 | 999.3 |
| 20260504141005 | 59 | 257 | 17.0 | 34.0 | 0.00 | 0.00 | 0.00 | 40 | 998.9 |
| 20260504140502 | 59 | 292 | 13.0 | 24.0 | 0.00 | 0.00 | 0.00 | 44 | 998.9 |
| 20260504130506 | 58 | 287 | 8.0 | 14.0 | 0.00 | 0.00 | 0.00 | 51 | 997.8 |
| 20260504110506 | 55 | 247 | 7.0 | 15.0 | 0.00 | 0.00 | 0.00 | 49 | 996.8 |
| 20260504100502 | 54 | 238 | 6.0 | 13.0 | 0.00 | 0.00 | 0.00 | 51 | 997.3 |